CDT,Max TemperatureF,Mean TemperatureF,Min TemperatureF,Max Dew PointF,MeanDew PointF,Min DewpointF,Max Humidity, Mean Humidity, Min Humidity, Max Sea Level PressureIn, Mean Sea Level PressureIn, Min Sea Level PressureIn, Max VisibilityMiles, Mean VisibilityMiles, Min VisibilityMiles, Max Wind SpeedMPH, Mean Wind SpeedMPH, Max Gust SpeedMPH,PrecipitationIn, CloudCover, Events, WindDirDegrees
2013-7-1,82,71,60,68,64,61,100,85,54,29.92,29.86,29.80,10,9,0,10,1,,0.00,3,,153
2013-7-2,82,70,59,68,64,57,100,78,51,30.07,29.99,29.91,10,8,0,13,2,,0.00,3,,223
2013-7-3,78,72,66,70,66,64,94,87,65,30.15,30.12,30.07,10,10,5,6,1,,0.00,4,,158
2013-7-4,71,68,64,70,66,63,100,96,88,30.15,30.13,30.10,10,7,0,10,3,,0.00,7,,102
2013-7-5,78,73,68,70,67,66,94,86,74,30.17,30.13,30.09,10,10,3,14,6,,0.00,6,,175
2013-7-6,69,66,64,68,66,64,100,94,88,30.16,30.12,30.10,10,8,2,9,2,,0.00,5,,173
2013-7-7,84,75,66,70,68,66,100,82,55,,,,10,10,2,8,1,,0.00,4,,211
2013-7-8,87,76,64,73,69,64,100,80,55,30.21,30.16,30.12,10,10,8,7,1,,0.00,1,,209
2013-7-9,89,78,66,75,72,66,100,80,55,30.19,30.14,30.08,10,9,1,9,2,,0.00,1,,212
2013-7-10,91,80,69,73,71,70,100,86,55,30.10,30.04,29.95,10,10,1,14,3,24,0.00,2,,207
2013-7-11,87,76,66,72,69,66,100,84,49,30.01,29.97,29.93,10,8,0,6,1,,0.00,3,,3
2013-7-12,80,70,60,66,62,55,100,75,44,30.04,30.01,29.96,10,9,5,10,3,,0.00,2,,31
2013-7-13,87,72,57,70,63,57,100,81,49,30.10,30.04,30.00,10,9,1,7,1,,0.00,2,,300
2013-7-14,86,76,66,72,69,64,100,82,58,30.22,30.15,30.09,10,9,4,10,2,,0.00,4,,123
2013-7-15,87,78,68,72,67,64,94,70,49,30.32,30.27,30.22,10,10,9,10,5,,0.00,1,,143
2013-7-16,89,78,66,75,70,66,100,80,55,30.36,30.32,30.28,10,9,3,8,1,,0.00,1,,39
2013-7-17,91,78,66,75,71,66,100,76,49,30.34,30.28,30.21,10,10,3,8,1,,0.00,1,,36
2013-7-18,87,78,69,75,71,68,100,81,58,30.23,30.17,30.08,10,10,5,12,2,,0.00,1,,28
2013-7-19,89,79,69,73,71,68,100,77,52,30.14,30.07,30.00,10,8,2,9,2,,0.00,0,,244
2013-7-20,91,80,69,73,71,68,100,77,52,30.05,30.00,29.93,10,9,4,9,2,,0.00,1,,245
2013-7-21,82,76,69,73,71,68,100,90,70,30.04,30.01,29.97,10,10,0,9,2,,0.00,2,,195
2013-7-22,78,73,68,73,69,66,100,89,74,29.94,29.94,29.93,10,10,2,15,5,,0.00,4,,226
2013-7-23,84,76,69,73,71,68,100,87,70,29.96,29.89,29.83,10,10,7,9,4,,0.00,5,,220
2013-7-24,84,74,62,72,68,61,100,83,61,29.96,29.91,29.86,10,9,0,9,2,,0.00,3,,277
2013-7-25,80,68,57,64,61,57,100,79,51,30.08,30.02,29.95,10,9,1,8,2,,0.00,0,,13
2013-7-26,84,70,57,68,62,55,100,76,45,30.11,30.06,30.02,10,8,0,9,1,,0.00,0,,285
2013-7-27,84,74,64,70,65,64,100,82,54,30.01,29.97,29.92,10,9,3,7,1,,0.00,1,,319
2013-7-28,78,68,55,66,58,52,100,72,42,30.12,30.05,29.96,10,10,6,8,2,,0.00,1,,329
2013-7-29,78,64,51,63,56,52,100,72,39,30.23,30.18,30.11,10,10,1,10,1,,0.00,0,,29
2013-7-30,84,70,57,72,63,55,100,81,40,30.25,30.19,30.13,10,10,4,7,1,,0.00,1,,122
2013-7-31,78,72,66,72,68,64,100,88,78,30.18,30.14,30.09,10,9,3,10,5,,0.00,7,,181